Location: Il Ritiro
(43.4167°N, 13.1333°E)
Time: 01:06:41
(UTC+00:00)

ALOS 2 - Pass Details

Date: 05 July 2020
Orbit: 630 x 632 km, 97.9° (Epoch: 11 August)

Event Time Altitude Azimuth Distance (km) Brightness Sun altitude
Exits shadow 23:35:17 22° 270° (W) 1,385 4.3 -23.7°
Drops below altitude 10° 23:38:32 10° 318° (NW) 2,022 5.7 -23.6°
Sets 23:41:10 0° 334° (NNW) 2,935 6.9 -23.6°
